[[{"header":{"parameterUnit":"m.s-1","parameterCategory":1,"la1":30.2991,"la2":30.254,"lo1":-89.0895,"lo2":-89.0444,"dy":0.0017,"dx":0.0017,"nx":28,"ny":28,"refTime":"2024-07-10T21:00:00:Z","depth":0,"parameterNumber":2,"parameterNumberName":"U-component_of_WINDS"},"data":[0,0,0,0,0,0,0,0,0,0,0,0,0,0,0,0,0,0,0,0,0,0,0,0,0,0,0,0,0,0,0,0,0,0,0,0,0,0,0,0,0,0,0,0,0,0,0,0,0,0,0,0,0,0,0,0,0,0,2.5813,2.5814,0,2.588,2.588,2.5881,2.5867,2.5866,2.5864,2.5863,2.593,2.5933,2.5936,0,0,0,0,0,0,0,0,0,0,0,0,0,2.5671,2.5674,2.5813,2.5814,2.5814,2.588,2.588,2.5881,2.5867,2.5866,2.5864,2.5863,2.593,2.5933,2.5937,0,0,0,0,0,0,0,0,0,0,0,0,0,2.5735,2.5675,2.5813,2.5815,2.5816,2.5879,2.588,2.5882,2.5867,2.5866,2.5864,2.5862,2.5928,2.5933,2.5937,2.6001,0,0,2.5951,2.5952,0,0,0,0,0,0,0,0,2.5731,2.574,2.5814,2.5815,2.5816,2.5863,2.5855,2.5922,2.5868,2.5848,2.5863,2.5861,2.5909,2.5915,2.5932,2.6005,2.6008,2.5951,2.5954,2.5955,2.5957,0,0,0,0,0,0,0,2.5727,2.5737,2.5839,2.5815,2.5816,2.5812,2.5819,2.5868,2.5888,2.5849,2.5849,2.5857,2.591,2.5928,2.5933,2.6009,2.5951,2.5955,2.5957,2.5959,2.6136,2.6138,0,0,0,0,0,0,2.5722,2.5733,2.5837,2.5841,2.5768,2.5817,2.5824,2.585,2.5888,2.5892,2.5858,2.5856,2.5921,2.5928,2.5936,2.6012,2.5955,2.596,2.5962,2.6134,2.6136,2.6138,0,0,0,0,0,0,2.5719,2.5731,2.5834,2.5787,2.58,2.5821,2.585,2.5852,2.587,2.5894,2.5898,2.5873,2.592,2.5929,2.5985,2.6014,2.5962,2.5966,2.6131,2.6134,2.6137,2.6166,0,0,0,0,0,0,2.5715,2.573,2.5755,2.5788,2.5803,2.5883,2.5852,2.5855,2.5878,2.5875,2.5909,2.5913,2.5919,2.5978,2.5989,2.6019,2.5969,2.6129,2.6133,2.6136,2.6162,2.617,2.6176,0,0,0,0,0,2.571,2.5761,2.5756,2.5769,2.5834,2.5885,2.5893,2.59,2.588,2.5905,2.5921,2.5912,2.601,2.5984,2.5996,2.6028,2.6127,2.6132,2.6136,2.6159,2.6168,2.6175,0,0,0,0,0,0,2.573,2.5765,2.5761,2.5824,2.5852,2.5882,2.5914,2.5909,2.5942,2.5938,2.5945,2.5953,2.6009,2.6024,2.5995,2.6092,2.6065,2.6073,2.6079,2.6087,2.6094,2.6088,2.5973,0,0,0,0,0,2.5743,2.5781,2.5809,2.5862,2.5876,2.5893,2.5915,2.5918,2.5946,2.5958,2.5977,2.6005,2.6042,2.6066,2.6101,2.6165,2.6171,2.6193,2.62,2.6205,2.621,2.6244,2.6253,2.6153,2.6153,2.6153,0,0,2.5768,2.5791,2.5815,2.5867,2.5888,2.5927,2.5903,2.5945,2.5973,2.5964,2.6017,2.6033,2.6064,2.6123,2.6151,2.6138,2.624,2.6211,2.6215,2.6218,2.6249,2.6259,2.6267,2.6156,2.6156,2.6155,0,0,2.5832,2.5855,2.5901,2.5923,2.5956,2.5967,2.5978,2.601,2.6019,2.6073,2.6066,2.61,2.6164,2.6186,2.6206,2.6279,2.6271,2.629,2.6324,2.6356,2.6364,2.6371,2.6395,2.6404,2.6296,2.6296,2.6296,0,2.5859,2.5918,2.5925,2.5968,2.599,2.5984,2.6029,2.6051,2.6094,2.6109,2.6095,2.6174,2.6195,2.6258,2.6276,2.6293,2.6304,2.6285,2.6363,2.637,2.6376,2.6399,2.6408,2.6298,2.6298,2.6298,2.6298,0,2.5948,2.5988,2.6021,2.6063,2.6089,2.6133,2.6146,2.6172,2.6173,2.6185,2.6238,2.6263,2.6303,2.6319,2.632,2.6382,2.6373,2.6361,2.6334,2.6387,2.6409,2.6418,2.6301,2.63,2.63,2.6299,0,0,2.6026,2.6071,2.6083,2.6101,2.6137,2.6168,2.6212,2.6251,2.6272,2.6302,2.6337,2.6392,2.638,2.6402,2.6406,2.6435,2.6488,2.6419,2.6419,2.6429,2.6556,2.6563,2.6574,2.6484,2.6486,2.6488,2.6553,0,2.6093,2.6169,2.6177,2.6245,2.6282,2.6277,2.6314,2.634,2.6353,2.6385,2.6399,2.6436,2.6419,2.6432,2.6461,2.6476,2.6514,2.6472,2.6516,2.6517,2.6506,2.6585,2.6593,2.6653,2.6561,2.6563,2.6564,0,2.618,2.6212,2.6284,2.6314,2.6329,2.6363,2.6399,2.643,2.6459,2.6466,2.6491,2.6491,2.6535,2.6508,2.6568,2.6539,2.6558,2.6568,2.657,2.6573,2.6542,2.6587,2.6673,2.6681,2.6578,2.6577,2.6576,0,2.6227,2.6289,2.6339,2.6355,2.6392,2.6415,2.6432,2.6459,2.6481,2.6513,2.6527,2.6563,2.6582,2.661,2.6619,2.6599,2.6678,2.6652,2.6683,2.6683,2.6698,2.6697,2.6785,2.6714,2.6714,2.6714,2.6714,0,2.6299,2.6342,2.636,2.6391,2.6439,2.6448,2.6495,2.6511,2.6535,2.6568,2.6566,2.6597,2.6609,2.6641,2.6649,2.6696,2.6705,2.6711,2.6712,2.671,2.6709,2.672,2.6716,2.6717,2.6716,2.6716,2.6715,0,2.6359,2.6373,2.6427,2.6458,2.6466,2.65,2.6526,2.6555,2.6567,2.6609,2.6619,2.6638,2.6677,2.6689,2.6736,2.6741,2.6795,2.6793,2.6785,2.6784,2.6813,2.681,2.6911,2.6924,2.6847,2.6847,2.6848,0,2.6402,2.6435,2.6469,2.6491,2.6509,2.6545,2.6567,2.6577,2.6601,2.6636,2.6661,2.6699,2.6729,2.6791,2.6808,2.6843,2.6841,2.6874,2.6846,2.6842,2.6839,2.6836,2.6838,2.6879,2.688,2.688,2.6881,0,2.6477,2.6483,2.6516,2.6551,2.6579,2.6607,2.6635,2.6653,2.6667,2.6693,2.6732,2.6756,2.6803,2.684,2.6876,2.6892,2.6888,2.689,2.6898,2.6895,2.6888,2.689,2.6796,2.6887,2.6886,2.6886,2.6886,2.6885,2.6529,2.6557,2.6586,2.6622,2.6644,2.667,2.6698,2.6714,2.6747,2.6786,2.679,2.6831,2.6859,2.6906,2.6924,2.6957,2.6947,2.696,2.6963,2.6965,2.6966,2.6885,2.6963,2.6963,2.6963,2.6963,2.6963,0,2.6602,2.662,2.6654,2.6692,2.672,2.6716,2.6745,2.6769,2.6806,2.6832,2.6862,2.6906,2.6942,2.6963,2.6999,2.702,2.7019,2.7029,2.7026,2.703,2.6974,2.6962,2.7029,2.7029,2.7029,2.7029,2.7029,2.7029,2.6643,2.6691,2.6699,2.6757,2.6775,2.6815,2.6833,2.6856,2.6876,2.6926,2.6956,2.6969,2.6993,2.703,2.7062,2.7067,2.708,2.709,2.7094,2.7041,2.7034,2.7027,2.7016,2.7093,2.7093,2.7146,2.7147,2.7147]},{"header":{"parameterUnit":"m.s-1","parameterCategory":1,"la1":30.2991,"la2":30.254,"lo1":-89.0895,"lo2":-89.0444,"dy":0.0017,"dx":0.0017,"nx":28,"ny":28,"refTime":"2024-07-10T21:00:00:Z","depth":0,"parameterNumber":3,"parameterNumberName":"V-component_of_WINDS"},"data":[0,0,0,0,0,0,0,0,0,0,0,0,0,0,0,0,0,0,0,0,0,0,0,0,0,0,0,0,0,0,0,0,0,0,0,0,0,0,0,0,0,0,0,0,0,0,0,0,0,0,0,0,0,0,0,0,0,0,0.5818,0.5818,0,0.5858,0.5859,0.5859,0.5867,0.5866,0.5866,0.5866,0.5907,0.5908,0.5909,0,0,0,0,0,0,0,0,0,0,0,0,0,0.5745,0.5746,0.5818,0.5818,0.5819,0.5858,0.5859,0.5859,0.5867,0.5866,0.5866,0.5866,0.5906,0.5908,0.5909,0,0,0,0,0,0,0,0,0,0,0,0,0,0.578,0.5747,0.5818,0.5827,0.5828,0.5858,0.5859,0.5859,0.5867,0.5866,0.5866,0.5865,0.5906,0.5908,0.591,0.5932,0,0,0.5916,0.5917,0,0,0,0,0,0,0,0,0.5778,0.5783,0.5825,0.5827,0.5828,0.5857,0.5848,0.5884,0.5867,0.5852,0.5866,0.5865,0.589,0.5894,0.5902,0.5934,0.5936,0.5916,0.5917,0.5918,0.5919,0,0,0,0,0,0,0,0.5776,0.5781,0.5834,0.5826,0.5828,0.5829,0.5833,0.5855,0.5874,0.5853,0.5854,0.5859,0.5891,0.59,0.5903,0.5937,0.5916,0.5918,0.5919,0.592,0.5988,0.5989,0,0,0,0,0,0,0.5772,0.5779,0.5832,0.5835,0.5801,0.5831,0.5836,0.5848,0.5873,0.5877,0.5859,0.5859,0.5897,0.5901,0.5905,0.5933,0.5918,0.592,0.5921,0.5988,0.5988,0.5989,0,0,0,0,0,0,0.577,0.5777,0.5831,0.5807,0.5814,0.5832,0.5846,0.5849,0.5859,0.5878,0.5881,0.5865,0.5897,0.5902,0.5925,0.5934,0.5921,0.5923,0.5987,0.5988,0.5989,0.5989,0,0,0,0,0,0,0.5768,0.5776,0.5785,0.5807,0.5815,0.5851,0.5847,0.585,0.5862,0.5862,0.5884,0.5888,0.5897,0.5922,0.5927,0.5937,0.5925,0.5986,0.5987,0.5988,0.5988,0.599,0.5991,0,0,0,0,0,0.5766,0.5784,0.5786,0.5792,0.5828,0.5852,0.5856,0.5867,0.5863,0.5872,0.5884,0.5887,0.5932,0.5924,0.593,0.5941,0.5986,0.5987,0.5988,0.5988,0.5989,0.5991,0,0,0,0,0,0,0.5762,0.5787,0.5789,0.5815,0.5831,0.5853,0.5865,0.5868,0.5886,0.5885,0.5897,0.5902,0.5924,0.5935,0.5926,0.5963,0.5959,0.5961,0.5956,0.5958,0.5959,0.5956,0.5926,0,0,0,0,0,0.5765,0.5782,0.5803,0.5824,0.5832,0.5847,0.5858,0.5864,0.5881,0.5888,0.5902,0.5918,0.5936,0.5947,0.5965,0.5989,0.5994,0.5999,0.6001,0.6002,0.6004,0.6017,0.6019,0.5993,0.5993,0.5993,0,0,0.577,0.5785,0.5796,0.5823,0.5837,0.5854,0.5852,0.5872,0.5885,0.5891,0.5914,0.5924,0.5943,0.5967,0.5978,0.5976,0.6012,0.6003,0.6004,0.6006,0.6018,0.6021,0.6023,0.5994,0.5994,0.5993,0,0,0.5788,0.5802,0.582,0.5833,0.5853,0.5863,0.5867,0.5888,0.5895,0.5919,0.5923,0.5939,0.5969,0.5982,0.5993,0.6014,0.6017,0.6019,0.6027,0.6039,0.6041,0.6043,0.6051,0.6053,0.6021,0.6021,0.6021,0,0.5792,0.5819,0.5829,0.5848,0.586,0.5866,0.5884,0.5896,0.5921,0.5929,0.5926,0.5964,0.5977,0.6004,0.6009,0.6017,0.6022,0.6018,0.604,0.6042,0.6044,0.6051,0.6054,0.6022,0.6022,0.6022,0.6022,0,0.5822,0.5841,0.5854,0.5877,0.589,0.5909,0.5921,0.5933,0.5938,0.5948,0.5971,0.5986,0.6007,0.6013,0.6019,0.6041,0.6039,0.6038,0.6034,0.6047,0.6054,0.6057,0.6022,0.6022,0.6022,0.6022,0,0,0.5841,0.5869,0.5873,0.5884,0.5905,0.592,0.5938,0.5958,0.5968,0.5984,0.5999,0.6025,0.6024,0.6036,0.6042,0.6053,0.6069,0.6051,0.6052,0.6054,0.6093,0.6094,0.6097,0.607,0.6071,0.6071,0.6092,0,0.5862,0.5895,0.5905,0.5933,0.595,0.5955,0.5971,0.5985,0.5994,0.601,0.602,0.6037,0.6035,0.6042,0.6053,0.6064,0.6077,0.6063,0.6084,0.6085,0.608,0.6101,0.6101,0.612,0.6094,0.6095,0.6095,0,0.5891,0.5908,0.5937,0.5956,0.5964,0.5978,0.5996,0.6011,0.6027,0.6033,0.6046,0.6051,0.6069,0.6063,0.6088,0.6079,0.6088,0.6094,0.6095,0.6098,0.6091,0.6104,0.6126,0.6129,0.61,0.6099,0.6099,0,0.5901,0.5931,0.5953,0.5961,0.5984,0.5993,0.6003,0.6019,0.603,0.6046,0.6053,0.6071,0.608,0.6094,0.6103,0.6098,0.6127,0.6122,0.6133,0.6132,0.6139,0.6139,0.6163,0.6144,0.6144,0.6144,0.6144,0,0.5924,0.5942,0.5958,0.5971,0.5991,0.6001,0.602,0.603,0.6043,0.6058,0.6063,0.6077,0.6089,0.6103,0.6111,0.613,0.6135,0.614,0.6141,0.6139,0.6139,0.6146,0.6145,0.6145,0.6145,0.6145,0.6145,0,0.594,0.5951,0.5974,0.5993,0.5998,0.6012,0.6028,0.6041,0.605,0.6068,0.6073,0.6087,0.6105,0.6115,0.6137,0.6142,0.6164,0.6165,0.6158,0.6159,0.6169,0.6168,0.6199,0.6204,0.6182,0.6182,0.6182,0,0.5953,0.5967,0.5987,0.5998,0.6008,0.6024,0.6035,0.6045,0.6056,0.6075,0.6085,0.6103,0.6119,0.6146,0.6158,0.6175,0.6177,0.6186,0.6179,0.6176,0.6177,0.6176,0.6177,0.6188,0.6188,0.6188,0.6188,0,0.5977,0.5981,0.5998,0.6015,0.6029,0.6043,0.6057,0.6065,0.6077,0.6089,0.6108,0.6119,0.6142,0.6159,0.6177,0.6186,0.6189,0.619,0.6193,0.6192,0.6187,0.619,0.6162,0.619,0.6189,0.6189,0.6189,0.6189,0.5992,0.6004,0.602,0.6038,0.6049,0.6062,0.6075,0.6085,0.6101,0.612,0.6124,0.6143,0.6158,0.6182,0.6192,0.6206,0.6204,0.6209,0.621,0.6212,0.6212,0.6185,0.6209,0.6209,0.6209,0.6209,0.6209,0,0.6016,0.6026,0.6042,0.6062,0.6075,0.6076,0.6092,0.6103,0.612,0.6133,0.6148,0.6168,0.6185,0.6197,0.6214,0.6223,0.6225,0.6228,0.6227,0.6229,0.6212,0.6208,0.6226,0.6226,0.6226,0.6226,0.6226,0.6226,0.603,0.605,0.6057,0.6083,0.6093,0.6112,0.612,0.6132,0.6143,0.6165,0.6179,0.6187,0.62,0.6218,0.6233,0.6236,0.6242,0.6245,0.6248,0.6232,0.623,0.6229,0.6224,0.6246,0.6246,0.6263,0.6264,0.6264]}]]